Date Time,Air Temp,Sky Temp,Clarity,Light Level,Rain Sensor,Readings
2012-08-11 00:01:31,27.6,0.1,27.5,0.0,2.3,112
2012-08-11 00:06:31,27.6,0.2,27.3,0.0,2.3,111
2012-08-11 00:11:31,27.5,-0.1,27.7,0.0,2.3,111
2012-08-11 00:16:31,27.4,-0.4,27.8,0.0,2.3,113
2012-08-11 00:21:31,27.4,-0.5,27.9,0.0,2.3,112
2012-08-11 00:26:31,27.3,-0.6,28.0,0.0,2.3,112
2012-08-11 00:31:31,27.3,-0.9,28.2,0.0,2.3,112
2012-08-11 00:36:31,27.2,-1.2,28.3,0.0,2.3,111
2012-08-11 00:41:31,27.1,-1.1,28.2,0.0,2.3,111
2012-08-11 00:46:31,27.1,-1.3,28.4,0.0,2.3,112
2012-08-11 00:51:31,27.1,-1.4,28.5,0.0,2.3,111
2012-08-11 00:56:31,27.0,-1.7,28.6,0.0,2.3,112
2012-08-11 01:01:31,26.8,-1.6,28.4,0.0,2.3,112
2012-08-11 01:06:31,26.7,-1.8,28.5,0.0,2.3,112
2012-08-11 01:11:31,26.6,-1.9,28.5,0.0,2.3,111
2012-08-11 01:16:31,26.6,-1.8,28.4,0.0,2.3,112
2012-08-11 01:21:31,26.6,-2.0,28.6,0.0,2.3,111
2012-08-11 01:26:31,26.1,-2.0,28.0,0.0,2.3,112
2012-08-11 01:31:31,26.5,-2.0,28.6,0.0,2.3,111
2012-08-11 01:36:31,26.4,-2.2,28.6,0.0,2.3,112
2012-08-11 01:41:31,26.3,-2.3,28.6,0.0,2.3,111
2012-08-11 01:46:31,26.3,-2.4,28.7,0.0,2.3,112
2012-08-11 01:51:31,26.3,-2.4,28.7,0.0,2.3,112
2012-08-11 01:56:31,26.3,-2.4,28.6,0.0,2.3,111
2012-08-11 02:01:31,26.3,-2.2,28.5,0.0,2.3,112
2012-08-11 02:06:31,26.3,-2.3,28.6,0.0,2.3,112
2012-08-11 02:11:31,26.2,-2.5,28.7,0.0,2.3,111
2012-08-11 02:16:31,26.2,-2.3,28.5,0.0,2.3,112
2012-08-11 02:21:31,26.2,-2.3,28.5,0.0,2.4,112
2012-08-11 02:26:31,26.2,-2.3,28.4,0.0,2.5,111
2012-08-11 02:31:31,26.2,-2.3,28.5,0.0,2.5,112
2012-08-11 02:36:31,26.2,-2.2,28.4,0.0,2.6,112
2012-08-11 02:41:31,26.1,-2.5,28.6,0.0,2.6,112
2012-08-11 02:46:31,26.1,-2.6,28.7,0.0,2.6,111
2012-08-11 02:51:31,26.0,-2.6,28.6,0.0,2.5,112
2012-08-11 02:56:31,25.8,-2.7,28.6,0.0,2.3,111
2012-08-11 03:01:31,25.7,-2.8,28.6,0.0,2.3,112
2012-08-11 03:06:31,25.7,-3.1,28.7,0.0,2.3,112
2012-08-11 03:11:31,25.6,-3.3,28.8,0.0,2.3,112
2012-08-11 03:16:31,25.5,-3.1,28.6,0.0,2.3,112
2012-08-11 03:21:31,25.5,-3.1,28.6,0.0,2.3,112
2012-08-11 03:26:31,25.4,-3.2,28.6,0.0,2.3,112
2012-08-11 03:31:31,25.4,-3.1,28.5,0.0,2.3,112
2012-08-11 03:36:31,25.4,-3.2,28.5,0.0,2.3,111
2012-08-11 03:41:31,25.4,-3.1,28.4,0.0,2.2,112
2012-08-11 03:46:31,25.4,-3.2,28.6,0.0,2.2,112
2012-08-11 03:51:31,25.4,-3.1,28.5,0.0,2.2,112
2012-08-11 03:56:31,25.3,-3.1,28.4,0.0,2.2,112
2012-08-11 04:01:31,25.3,-3.1,28.4,0.0,2.2,112
2012-08-11 04:06:31,25.3,-3.2,28.4,0.0,2.3,112
2012-08-11 04:11:31,25.3,-3.1,28.3,0.0,2.3,112
2012-08-11 04:16:31,25.3,-3.1,28.4,0.0,2.3,112
2012-08-11 04:21:31,25.2,-3.1,28.3,0.1,2.3,112
2012-08-11 04:26:31,25.2,-3.1,28.4,0.1,2.4,112
2012-08-11 04:31:31,25.2,-3.2,28.5,0.1,2.4,112
2012-08-11 04:36:31,25.2,-3.3,28.5,0.2,2.3,112
2012-08-11 04:41:31,25.2,-3.3,28.5,0.4,2.3,112
2012-08-11 04:46:31,25.2,-3.1,28.3,0.6,2.3,112
2012-08-11 04:51:31,25.2,-3.2,28.4,0.9,2.3,111
2012-08-11 04:56:31,25.1,-3.2,28.3,1.4,2.3,112
2012-08-11 05:01:31,25.1,-3.5,28.6,2.4,2.3,112
2012-08-11 05:06:31,25.0,-3.7,28.7,4.1,2.3,112
2012-08-11 05:11:31,24.9,-3.8,28.8,6.9,2.3,111
2012-08-11 05:16:31,24.9,-3.8,28.7,11.1,2.3,112
2012-08-11 05:21:31,24.9,-3.8,28.6,16.2,2.3,112
2012-08-11 05:26:31,24.9,-3.6,28.5,21.2,2.3,111
2012-08-11 05:31:31,24.9,-3.6,28.5,25.3,2.3,112
2012-08-11 05:36:31,25.0,-3.4,28.4,27.9,2.3,112
2012-08-11 05:41:31,25.1,-3.5,28.5,29.5,2.3,111
2012-08-11 05:46:31,25.1,-3.6,28.6,30.4,2.3,112
2012-08-11 05:51:31,25.1,-3.8,28.9,30.9,2.3,112
2012-08-11 05:56:31,25.1,-3.8,28.9,31.3,2.3,112
2012-08-11 06:01:31,25.1,-4.0,29.1,31.5,2.3,112
2012-08-11 06:06:31,25.1,-4.0,29.1,31.7,2.3,112
2012-08-11 06:11:31,25.1,-4.0,29.1,31.8,2.3,112
2012-08-11 06:16:31,25.2,-4.0,29.2,31.9,2.3,111
2012-08-11 06:21:31,25.3,-4.1,29.4,32.0,2.3,112
2012-08-11 06:26:31,25.4,-3.9,29.3,32.0,2.3,112
2012-08-11 06:31:31,25.5,-3.9,29.4,32.1,2.3,112
2012-08-11 06:36:31,25.7,-3.9,29.6,32.1,2.2,112
2012-08-11 06:41:31,25.9,-3.7,29.6,32.1,2.3,112
2012-08-11 06:46:31,26.2,-3.3,29.5,32.2,2.3,111
2012-08-11 06:51:31,26.4,-3.3,29.7,32.2,2.3,112
2012-08-11 06:56:31,26.6,-3.1,29.7,32.2,2.5,112
2012-08-11 07:01:31,26.9,-2.8,29.8,32.3,2.4,111
2012-08-11 07:06:31,27.2,-2.6,29.9,32.3,2.3,112
2012-08-11 07:11:31,27.5,-2.4,29.9,32.3,2.3,112
2012-08-11 07:16:31,27.7,-2.3,30.0,32.3,2.3,112
2012-08-11 07:21:31,27.9,-1.8,29.7,32.4,2.3,111
2012-08-11 07:26:31,28.1,-1.9,30.1,32.4,2.3,112
2012-08-11 07:31:31,28.2,-2.2,30.4,32.4,2.3,112
2012-08-11 07:36:31,28.2,-1.8,30.0,32.4,2.3,112
2012-08-11 07:41:31,28.5,-2.0,30.4,32.4,2.3,111
2012-08-11 07:46:31,28.6,-2.1,30.7,32.4,2.3,112
2012-08-11 07:51:31,28.7,-1.8,30.5,32.4,2.3,112
2012-08-11 07:56:31,28.8,-1.8,30.6,32.4,2.3,111
2012-08-11 08:01:31,28.8,-1.8,30.6,32.4,2.3,112
2012-08-11 08:06:31,28.8,-1.6,30.4,32.4,2.3,112
2012-08-11 08:11:31,28.8,-1.7,30.5,32.4,2.3,111
2012-08-11 08:16:31,28.8,-1.8,30.6,32.4,2.3,112
2012-08-11 08:21:31,28.8,-1.8,30.6,32.4,2.3,111
2012-08-11 08:26:31,28.8,-1.5,30.4,32.4,2.3,112
2012-08-11 08:31:31,28.8,-1.4,30.3,32.4,2.3,112
2012-08-11 08:36:31,28.9,-1.6,30.4,32.4,2.3,112
2012-08-11 08:41:31,28.9,-1.4,30.4,32.4,2.3,112
2012-08-11 08:46:31,29.1,-1.0,30.1,32.4,2.3,111
2012-08-11 08:51:31,29.2,-1.2,30.5,32.4,2.3,112
2012-08-11 08:56:31,29.3,-0.7,30.0,32.4,2.3,112
2012-08-11 09:01:31,29.5,-0.3,29.9,32.4,2.3,112
2012-08-11 09:06:31,29.6,-0.7,30.4,32.4,2.3,112
2012-08-11 09:11:31,29.7,-0.2,29.9,32.4,2.3,111
2012-08-11 09:16:31,30.0,-0.1,30.1,32.4,2.3,112
2012-08-11 09:21:31,30.2,-0.2,30.4,32.4,2.3,112
2012-08-11 09:26:31,30.3,-0.4,30.7,32.4,2.3,111
2012-08-11 09:31:31,30.3,-0.6,30.9,32.4,2.3,112
2012-08-11 09:36:31,30.1,-0.1,30.2,32.4,2.3,112
2012-08-11 09:41:31,30.3,0.8,29.5,32.5,2.3,111
2012-08-11 09:46:31,30.9,0.9,30.1,32.5,2.3,111
2012-08-11 09:51:31,31.9,1.5,30.4,32.5,2.3,112
2012-08-11 09:56:31,32.4,1.8,30.6,32.5,1.6,111
2012-08-11 10:01:31,33.0,2.2,30.9,32.5,1.3,111
2012-08-11 10:06:31,33.4,1.7,31.7,32.5,1.2,111
2012-08-11 10:11:31,33.4,2.5,30.9,32.5,1.2,111
2012-08-11 10:16:31,33.6,2.8,30.8,32.5,1.3,112
2012-08-11 10:21:31,34.0,3.4,30.6,32.5,1.5,111
2012-08-11 10:26:31,34.4,3.4,31.1,32.5,1.7,112
2012-08-11 10:31:31,34.6,3.8,30.7,32.6,1.8,111
2012-08-11 10:36:31,34.8,3.8,31.0,32.6,1.8,111
2012-08-11 10:41:31,34.8,3.3,31.6,32.6,1.9,112
2012-08-11 10:46:31,34.6,3.0,31.6,32.6,1.8,111
2012-08-11 10:51:31,34.6,3.4,31.2,32.6,1.8,111
2012-08-11 10:56:31,34.7,3.7,31.0,32.6,1.9,111
2012-08-11 11:01:31,34.9,3.5,31.3,32.6,1.9,112
2012-08-11 11:06:31,35.0,4.2,30.9,32.6,2.0,111
2012-08-11 11:11:31,35.4,5.1,30.2,32.6,2.1,112
2012-08-11 11:16:31,35.9,6.3,29.7,32.6,2.3,111
2012-08-11 11:21:31,36.7,6.9,29.9,32.6,2.5,112
2012-08-11 11:26:31,36.8,5.3,31.5,32.6,2.6,112
2012-08-11 11:31:31,36.1,5.2,30.8,32.6,2.4,111
2012-08-11 11:36:31,35.6,5.5,30.1,32.6,2.4,112
2012-08-11 11:41:31,35.4,4.8,30.6,32.6,2.3,111
2012-08-11 11:46:31,34.7,2.9,31.8,32.6,2.0,112
2012-08-11 11:51:31,33.8,3.8,30.0,32.6,1.8,111
2012-08-11 11:56:31,33.9,5.9,28.0,32.6,1.8,112
2012-08-11 12:01:31,34.9,6.2,28.7,32.6,2.0,112
2012-08-11 12:06:31,35.8,6.3,29.4,32.6,2.3,111
2012-08-11 12:11:31,36.4,6.6,29.8,32.6,2.4,111
2012-08-11 12:16:31,37.2,7.5,29.7,32.6,2.7,112
2012-08-11 12:21:31,37.7,6.7,30.9,32.6,2.8,111
2012-08-11 12:26:31,37.8,7.1,30.7,32.6,2.6,111
2012-08-11 12:31:31,37.7,5.9,31.8,32.6,2.5,112
2012-08-11 12:36:31,37.4,6.2,31.2,32.6,2.8,111
2012-08-11 12:41:32,37.1,6.1,31.0,32.6,2.8,112
2012-08-11 12:46:32,36.9,6.4,30.5,32.6,2.8,111
2012-08-11 12:51:32,37.1,7.3,29.8,32.6,2.8,112
2012-08-11 12:56:32,37.8,7.8,30.0,32.6,2.5,112
2012-08-11 13:01:32,38.5,7.9,30.6,32.6,2.4,111
2012-08-11 13:06:32,38.8,7.6,31.2,32.6,2.4,111
2012-08-11 13:11:32,37.8,6.7,31.2,32.6,2.4,112
2012-08-11 13:16:32,37.7,6.4,31.3,32.6,2.4,111
2012-08-11 13:21:32,37.2,7.7,29.5,32.6,2.4,112
2012-08-11 13:26:32,37.0,7.6,29.4,32.6,2.7,111
2012-08-11 13:31:32,37.0,7.7,29.3,32.6,2.8,112
2012-08-11 13:36:32,37.2,8.1,29.1,32.6,2.6,111
2012-08-11 13:41:32,37.7,8.7,29.0,32.6,2.4,112
2012-08-11 13:46:32,38.1,7.7,30.5,32.6,2.4,111
2012-08-11 13:51:32,38.1,8.7,29.4,32.6,2.4,112
2012-08-11 13:56:32,38.3,7.9,30.4,32.6,2.4,111
2012-08-11 14:01:32,38.0,6.2,31.7,32.6,2.4,112
2012-08-11 14:06:32,37.2,7.8,29.4,32.6,2.4,111
2012-08-11 14:11:32,37.7,8.6,29.1,32.6,2.4,112
2012-08-11 14:16:32,38.2,8.0,30.2,32.6,2.4,112
2012-08-11 14:21:32,38.0,7.0,31.0,32.6,2.4,111
2012-08-11 14:26:32,37.4,6.8,30.6,32.6,2.4,112
2012-08-11 14:31:32,37.1,7.6,29.5,32.6,2.4,111
2012-08-11 14:36:32,36.8,7.3,29.5,32.6,2.7,112
2012-08-11 14:41:32,36.5,7.5,29.0,32.6,2.8,111
2012-08-11 14:46:32,36.4,7.5,28.8,32.6,2.8,111
2012-08-11 14:51:32,36.4,8.9,27.6,32.6,2.8,111
2012-08-11 14:56:32,37.0,8.7,28.3,32.6,2.7,112
2012-08-11 15:01:32,37.3,8.6,28.7,32.6,2.4,111
2012-08-11 15:06:32,37.4,8.2,29.2,32.6,2.4,111
2012-08-11 15:11:32,37.5,8.1,29.5,32.6,2.4,112
2012-08-11 15:16:32,37.1,7.3,29.8,32.6,2.5,111
2012-08-11 15:21:32,36.6,8.2,28.4,32.6,2.8,111
2012-08-11 15:26:32,36.7,8.9,27.8,32.6,2.8,112
2012-08-11 15:31:32,37.3,9.7,27.6,32.6,2.5,111
2012-08-11 15:36:32,37.7,8.2,29.6,32.6,2.4,112
2012-08-11 15:41:32,37.8,9.0,28.8,32.6,2.4,111
2012-08-11 15:46:32,38.1,8.8,29.3,32.6,2.4,111
2012-08-11 15:51:32,38.3,8.9,29.4,32.6,2.4,112
2012-08-11 15:56:32,38.1,7.2,30.9,32.6,2.4,111
2012-08-11 16:01:32,37.3,7.2,30.1,32.6,2.4,112
2012-08-11 16:06:32,36.7,6.5,30.2,32.6,2.6,111
2012-08-11 16:11:32,36.1,7.4,28.7,32.6,2.8,112
2012-08-11 16:16:32,36.1,8.7,27.4,32.6,2.8,111
2012-08-11 16:21:32,36.6,8.9,27.7,32.6,2.8,111
2012-08-11 16:26:32,36.9,8.1,28.7,32.6,2.8,112
2012-08-11 16:31:32,36.9,8.1,28.7,32.6,2.6,111
2012-08-11 16:36:32,36.9,8.4,28.5,32.6,2.6,112
2012-08-11 16:41:32,37.4,10.0,27.5,32.6,2.4,111
2012-08-11 16:46:32,38.6,8.5,30.0,32.6,2.4,112
2012-08-11 16:51:32,38.5,6.9,31.6,32.6,2.4,111
2012-08-11 16:56:32,37.8,7.7,30.2,32.6,2.4,111
2012-08-11 17:01:32,37.6,7.1,30.5,32.6,2.4,112
2012-08-11 17:06:32,36.6,4.9,31.7,32.5,2.4,111
2012-08-11 17:11:32,35.2,6.0,29.3,32.6,2.6,112
2012-08-11 17:16:32,34.5,6.2,28.3,32.5,2.3,111
2012-08-11 17:21:32,33.9,6.6,27.3,32.5,2.3,112
2012-08-11 17:26:32,33.7,7.2,26.5,32.6,2.0,111
2012-08-11 17:31:32,33.8,8.6,25.1,32.6,2.0,111
2012-08-11 17:36:32,34.6,10.2,24.4,32.6,2.3,111
2012-08-11 17:41:32,35.7,9.1,26.6,32.6,2.5,112
2012-08-11 17:46:32,36.1,8.0,28.1,32.6,2.7,112
2012-08-11 17:51:32,35.9,6.1,29.7,32.6,2.7,111
2012-08-11 17:56:32,35.7,8.2,27.5,32.6,2.7,111
2012-08-11 18:01:32,36.6,6.9,29.6,32.6,2.8,112
2012-08-11 18:06:32,36.2,4.6,31.5,32.5,2.7,111
2012-08-11 18:11:32,35.0,5.1,29.9,32.5,2.4,112
2012-08-11 18:16:32,34.2,4.9,29.2,32.5,2.3,112
2012-08-11 18:21:32,33.4,5.2,28.2,32.5,2.0,112
2012-08-11 18:26:32,33.0,6.0,27.0,32.5,1.8,112
2012-08-11 18:31:32,32.6,6.8,25.8,32.5,1.7,111
2012-08-11 18:36:32,32.6,6.7,25.8,32.5,1.6,111
2012-08-11 18:41:32,32.5,5.4,27.1,32.5,1.6,112
2012-08-11 18:46:32,32.3,5.3,27.0,32.5,1.4,112
2012-08-11 18:51:32,32.2,5.0,27.2,32.5,1.4,111
2012-08-11 18:56:32,32.0,4.9,27.2,32.4,1.3,112
2012-08-11 19:01:32,31.8,4.8,27.0,32.5,1.2,112
2012-08-11 19:06:32,31.8,5.8,26.0,32.5,1.2,111
2012-08-11 19:11:32,32.0,4.1,27.8,32.4,1.2,112
2012-08-11 19:16:32,31.8,3.8,28.0,32.5,1.2,111
2012-08-11 19:21:32,32.2,3.8,28.4,32.5,1.2,111
2012-08-11 19:26:32,32.4,2.2,30.1,32.4,1.3,111
2012-08-11 19:31:32,32.3,3.4,28.8,32.5,1.3,112
2012-08-11 19:36:32,32.5,3.2,29.3,32.5,1.4,111
2012-08-11 19:41:32,32.4,1.5,31.0,32.4,1.4,111
2012-08-11 19:46:32,31.9,1.5,30.4,32.3,1.2,111
2012-08-11 19:51:32,31.3,1.5,29.9,32.3,1.4,111
2012-08-11 19:56:32,31.0,1.8,29.3,32.3,1.6,111
2012-08-11 20:01:32,30.8,1.4,29.4,32.2,1.7,111
2012-08-11 20:06:32,30.5,1.2,29.2,32.1,2.3,111
2012-08-11 20:11:32,30.2,0.9,29.3,32.0,2.3,111
2012-08-11 20:16:32,29.9,0.7,29.3,31.8,2.3,111
2012-08-11 20:21:32,29.7,0.5,29.2,31.5,2.3,112
2012-08-11 20:26:32,29.5,0.7,28.7,31.1,2.3,111
2012-08-11 20:31:32,29.3,0.6,28.7,30.5,2.3,112
2012-08-11 20:36:32,29.1,0.5,28.6,29.6,2.3,111
2012-08-11 20:41:32,29.0,0.8,28.2,28.5,2.3,111
2012-08-11 20:46:32,28.9,1.0,27.9,26.8,2.3,111
2012-08-11 20:51:32,28.8,0.4,28.4,23.9,2.3,111
2012-08-11 20:56:32,28.7,-0.4,29.1,19.5,2.3,112
2012-08-11 21:01:32,28.0,-0.5,28.5,14.3,2.3,112
2012-08-11 21:06:32,28.5,-0.5,29.0,9.5,2.3,112
2012-08-11 21:11:32,28.4,-0.9,29.3,5.7,2.3,112
2012-08-11 21:16:32,28.3,-0.7,29.0,3.2,2.3,112
2012-08-11 21:21:32,28.2,-0.7,28.9,1.8,2.3,112
2012-08-11 21:26:32,28.1,-0.5,28.6,1.0,2.3,112
2012-08-11 21:31:32,28.1,-0.1,28.2,0.6,2.3,111
2012-08-11 21:36:32,28.0,0.1,27.9,0.3,2.3,111
2012-08-11 21:41:32,27.9,0.6,27.3,0.2,2.3,112
2012-08-11 21:46:32,27.9,0.9,27.0,0.1,2.3,111
2012-08-11 21:51:32,27.8,0.9,26.9,0.1,2.3,111
2012-08-11 21:56:32,27.8,1.2,26.6,0.0,2.3,111
2012-08-11 22:01:32,27.7,1.1,26.6,0.0,2.3,112
2012-08-11 22:06:32,27.6,1.1,26.5,0.0,2.3,111
2012-08-11 22:11:32,27.5,1.1,26.4,0.0,2.3,111
2012-08-11 22:16:32,27.5,1.0,26.5,0.0,2.3,110
2012-08-11 22:21:32,27.4,0.6,26.8,0.0,2.3,112
2012-08-11 22:26:32,27.4,0.3,27.1,0.0,2.3,111
2012-08-11 22:31:32,26.8,0.4,26.5,0.0,2.3,111
2012-08-11 22:36:32,26.8,0.7,26.1,0.0,2.3,112
2012-08-11 22:41:32,27.2,0.6,26.6,0.0,2.3,111
2012-08-11 22:46:32,27.2,0.6,26.5,0.0,2.3,111
2012-08-11 22:51:32,27.2,0.9,26.3,0.0,2.3,111
2012-08-11 22:56:32,27.1,1.3,25.8,0.0,2.3,111
2012-08-11 23:01:32,27.1,1.4,25.8,0.0,2.3,111
2012-08-11 23:06:32,27.1,1.5,25.5,0.0,2.3,111
2012-08-11 23:11:32,27.1,2.2,24.9,0.0,2.3,111
2012-08-11 23:16:32,27.1,3.5,23.6,0.0,2.3,112
2012-08-11 23:21:32,27.1,4.9,22.2,0.0,2.3,111
2012-08-11 23:26:32,27.1,6.5,20.6,0.1,2.3,112
2012-08-11 23:31:32,24.6,6.8,17.8,0.1,2.4,111
2012-08-11 23:36:32,22.9,6.1,16.9,0.0,2.3,111
2012-08-11 23:41:32,22.4,5.3,17.1,0.0,2.2,112
2012-08-11 23:46:32,22.2,5.5,16.7,0.0,2.3,112
2012-08-11 23:51:32,22.1,6.7,15.3,0.0,2.3,111
2012-08-11 23:56:32,22.0,7.5,14.5,0.1,2.3,112
